Reflectivity
17 17 17 18 18 18 16 15 -0 8 -20 -20 -20 -20 -20 -20 -20 -20 -20 -20 -20 -20 -20 -20 -20 -20 -20 -20 -20 -20 -20 -9 -17 7 14 17 18 18 15 -20 21 -20 -20 -20 -20 -20 -20
14 16 18 17 18 14 16 18 16 10 -20 -20 -20 -20 -20 -20 -20 -20 -20 -20 -20 -20 -20 -20 -20 -20 -20 -20 -20 -20 -20 -20 -20 -14 -8 -17 19 -7 3 -20 -20 -17 -20 -20 -20 -20 -20
-7 13 16 17 17 17 17 17 17 11 -20 -20 -20 -20 -20 -20 -20 -20 -20 -20 -20 -20 -20 -20 -20 -20 -20 -20 -20 -20 -20 -18 -20 -20 -14 -20 -20 -20 8 -20 -18 13 -20 -20 -20 -20 -20
9 -20 4 8 9 4 -7 -6 17 15 -20 -20 -20 -20 -20 -20 -20 -20 -20 -20 -20 -20 -20 -20 -20 -20 -20 -20 -20 -20 -20 -13 -20 3 -20 -20 -20 -3 10 28 34 15 8 -20 -20 -20 -20
-13 -20 -16 -20 -20 -20 -10 10 13 -6 -1 -20 -20 -20 -20 -20 -20 -20 -20 -20 -20 -20 -20 -20 -20 -20 -20 -20 -20 -20 -20 -20 -20 -20 -20 -20 2 23 14 -12 8 -15 -10 -20 -20 -20 -15
-20 -20 -20 -20 -20 -20 -20 -20 -19 8 8 -20 -20 -20 -20 -20 -20 -20 -20 -20 -20 -20 -20 -20 -20 -20 -20 -20 -20 -20 -20 -20 -20 -3 -20 -20 24 20 7 -20 -20 -18 -7 -7 -20 -20 -20
-19 -20 -20 -20 -20 -20 -20 -20 -20 -16 7 7 -20 -20 -20 -20 -20 -20 -20 -20 -20 -20 -20 -20 -20 -20 -20 -20 -20 -20 -20 -20 -20 -20 -11 -14 -20 -9 12 -20 -11 10 7 -20 -20 -20 -20
-20 -20 -20 -20 -20 -20 -20 -20 -20 -20 -6 1 -20 -20 -20 -20 -20 -20 -20 -20 -20 -20 -20 -20 -20 -20 -20 -20 -20 -20 -20 -20 -20 -20 -20 -20 -20 -20 -20 -20 -20 -20 -17 -20 -20 -20 -20
-1 -20 -20 -20 -20 -20 -20 -20 -20 -20 -20 -19 -20 -20 -20 -20 -20 -20 -20 -20 -20 -20 -20 -20 -20 -20 -20 -20 -20 -20 -20 -20 -20 -20 -20 -20 -20 -20 -15 -20 -20 -20 -20 -20 -20 -20 -20
-20 -20 -20 -20 -20 -20 -20 -20 -20 -20 -20 -20 -20 -20 -20 -20 -20 -20 -20 -20 -20 -20 -20 -20 -20 -20 -20 -20 -20 -20 -20 -20 -20 -20 -20 -20 -20 -20 -20 -20 -20 -20 -20 -20 -20 -20 -20
-20 -20 -20 -20 -20 -20 -20 -20 -20 -20 -20 -20 -20 -20 -20 -20 -20 -20 -20 -20 -20 -20 -20 -20 -20 -20 -20 -20 -20 -20 -20 -20 -20 -20 -20 -20 -20 3 -3 19 -19 -18 -20 -20 -20 -20 -20
-20 -20 -20 -20 -20 -20 -20 -20 -20 -20 -20 -20 -20 -20 -20 -20 -20 -20 -20 -20 -20 -20 -20 -20 -20 -20 -20 -20 -20 -20 -20 -20 -20 -20 -20 -20 3 0 -6 -10 -20 18 -20 -20 -20 6 -7
-20 -20 -20 -20 -20 -20 -20 -20 -20 -20 -20 -20 -20 -20 -20 -20 -20 -20 -20 -20 -20 -20 -20 -20 -20 -20 -20 -20 -20 -20 -20 -20 -20 -20 -20 -20 -20 -20 -20 -20 -20 -20 -20 -20 -20 -20 -20
-20 -20 -20 -20 -20 -20 -20 -20 -20 -20 -20 -20 -20 -20 -20 -20 -20 -20 -20 -20 -20 -20 -20 -20 -20 -20 -20 -20 -20 -20 -20 -20 -20 -20 -20 -20 -20 -20 -20 -20 -20 -20 -20 -20 -20 -20 -20
-20 -20 -20 -20 -20 -20 -20 -20 -20 -20 -20 -20 -20 -20 -20 -20 -20 -20 -20 -20 -20 -20 -20 -20 -20 -20 -20 -20 -20 -20 -20 -20 -20 -20 -20 -20 -20 -20 -20 -20 -20 -20 -20 -20 -20 -20 -20
-20 -20 -20 -20 -20 -20 -20 -20 -20 -20 -20 -20 -20 -20 -20 -20 -20 -20 -20 -20 -20 -20 -20 -20 -20 -20 -20 -20 -20 -20 -20 -20 -20 -20 -20 -20 -20 -20 -20 -20 -20 -20 -20 -19 -15 -20 -20
-20 -20 -20 -20 -20 -20 -20 -20 -20 -20 -20 -20 -20 -20 -20 -20 -20 -20 -20 -20 -20 -20 -20 -20 -20 -20 -20 -20 -20 -20 -20 -20 -20 -20 -20 -20 -20 -20 -20 -20 -20 -20 -18 -11 -18 -20 -20
-20 -20 -20 -20 -20 -20 -20 -20 -20 -20 -20 -20 -20 -20 -20 -20 -20 -20 -20 -20 -20 -20 -20 -20 -20 -20 -20 -20 -20 -20 -20 -20 -20 -20 -20 -20 -20 -20 -20 -20 -20 -20 -20 -20 -20 -20 -20
-20 -20 -20 -20 -20 -20 -20 -20 -20 -20 -20 -20 -20 -20 -20 -20 -20 -20 -20 -20 -20 -20 -20 -20 -20 -20 -20 -20 -20 -20 -20 -20 -20 -20 -20 -20 -20 -20 -20 -20 -20 -20 -20 -20 -20 -20 -20
-20 -20 -20 -20 -20 -20 -20 -20 -20 -20 -20 -20 -20 -20 -20 -20 -20 -20 -20 -20 -20 -20 -20 -20 -20 -20 -20 -20 -20 -20 -20 -20 -20 -20 -20 -20 -20 -20 -20 -20 -20 -20 -20 -20 -20 -20 -20
-20 -20 -20 -20 -20 -20 -20 -20 -20 -20 -20 -20 -20 -20 -20 -20 -20 -20 -20 -20 -20 -20 -20 -20 -20 -20 -20 -20 -20 -20 -20 -20 -20 -20 -20 -20 -20 -20 -20 -20 -20 -20 -20 -20 -20 -20 -20
-20 -20 -20 -20 -20 -20 -20 -20 -20 -20 -20 -20 -20 -20 -20 -20 -20 -20 -20 -20 -20 -20 -20 -20 -20 -20 -20 -20 -20 -20 -20 -20 -20 -20 -20 -20 -20 -20 -20 -20 -20 -20 -20 -20 -20 -20 -20
-20 -20 -20 -20 -20 -20 -20 -20 -20 -20 -20 -20 -20 -20 -20 -20 -20 -20 -20 -20 -20 -20 -20 -20 -20 -20 -20 -20 -20 -20 -20 -20 -20 -20 -20 -20 -20 -20 -20 -20 -20 -20 -20 -20 -20 -20 -20
-10 -10 -20 -20 -20 -20 -20 -20 -20 -20 -20 -20 -20 -20 -20 -20 -20 -20 -20 -20 -20 -20 -20 -20 -20 -20 -20 -20 -20 -20 -20 -20 -20 -20 -20 -20 -20 -20 -20 -20 -20 -20 -20 -20 -20 -20 -20
11 -20 -20 -20 -20 -20 -20 -20 -20 -20 -20 -20 -20 -20 -20 -20 -20 -20 -20 -20 -20 -20 -20 -20 -20 -20 -20 -20 -20 -20 -20 -20 -20 -20 -20 -20 -20 -20 -20 -20 -20 -20 -20 -20 -20 -20 -20
-3 -17 6 3 5 -15 -4 -20 -20 -20 -20 -20 -20 -20 -20 -20 -20 -20 -20 -20 -20 -20 -20 -20 -20 -20 -20 -20 -20 -20 -20 -20 -20 -20 -20 -20 -20 -20 -20 -20 -20 -20 -20 -20 -20 -20 -20
18 16 12 10 6 13 4 4 -20 -20 -20 -20 -20 -20 -20 -20 -20 -20 -20 -20 -20 -20 -20 -20 -20 -20 -20 -20 -20 -20 -20 -20 -20 -20 -20 -20 -20 -20 -20 -20 -20 -20 -20 -20 -20 -20 -20
19 14 13 12 14 11 6 -9 -1 -11 -20 -20 -20 -20 -20 -20 -20 -20 -20 -20 -20 -20 -20 -20 -20 -20 -20 -20 -20 -20 -20 -20 -20 -20 -20 -20 -20 -20 -20 -20 -20 -20 -20 -20 -20 -20 -20
25 22 17 15 19 8 13 9 18 -11 -20 -20 -20 -20 -20 -20 -20 -20 -20 -20 -20 -20 -20 -20 -20 -20 -20 -20 -20 -20 -20 -20 -20 -20 -20 -20 -20 -20 -20 -20 -20 -20 -20 -20 -20 -20 -20
Wind_Speed
10 11 11 12 12 13 13 12 12 11 11 10 10 10 10 12 13 13 13 13 13 10 8 8 10 7 5 0 4 7 12 9 6 3 3 4 2 4 2 3 6 5 3 9 11 10 6
10 11 12 12 13 14 14 14 13 12 12 11 11 10 10 11 12 13 14 14 12 10 8 7 9 10 1 5 5 7 7 7 3 2 6 5 1 4 3 3 4 6 12 9 7 8 2
10 11 11 13 14 15 15 15 15 14 13 12 12 11 11 11 12 13 14 15 11 9 8 8 7 3 5 2 4 8 7 3 3 4 5 3 6 5 4 4 5 18 11 6 5 3 2
10 11 12 13 14 14 15 16 16 15 14 13 13 13 12 12 12 12 13 14 8 7 8 8 4 2 0 3 3 7 7 3 6 6 5 5 3 8 3 8 9 14 5 5 4 4 2
10 11 11 13 13 15 16 17 17 16 16 15 13 12 13 12 12 12 11 11 8 7 7 5 3 2 4 7 3 7 2 3 2 3 5 8 4 5 5 5 3 2 4 3 3 3 3
10 11 12 12 13 15 16 17 18 17 16 15 14 13 12 12 12 11 13 7 6 7 3 3 3 4 5 4 4 5 3 2 1 1 3 1 3 3 3 3 2 3 2 2 6 3 4
10 11 12 13 14 15 16 17 17 19 18 16 15 13 12 11 11 10 7 4 6 4 6 3 2 3 3 6 2 3 1 4 3 4 3 4 2 1 5 3 3 1 3 5 1 6 6
11 12 12 13 14 15 16 17 18 18 19 17 15 14 13 12 11 9 1 4 3 3 2 3 3 3 3 1 1 3 1 3 4 3 4 6 2 6 7 8 6 6 2 4 4 2 5
10 12 13 13 14 15 16 17 18 19 19 18 15 14 13 12 9 3 5 4 0 1 2 2 3 1 3 2 4 4 4 2 3 3 4 3 5 6 5 5 6 5 9 4 8 3 4
9 11 12 13 14 15 16 17 18 19 17 18 17 12 11 12 3 0 3 2 1 1 6 6 2 3 1 2 2 2 1 2 3 3 1 3 7 4 1 3 4 4 5 4 9 5 5
9 11 12 13 14 15 16 17 18 18 17 16 17 13 11 7 2 3 0 1 1 4 7 7 4 2 2 1 2 3 2 1 4 5 4 4 5 7 6 2 4 4 3 5 5 4 6
9 10 11 12 13 15 16 17 18 18 18 16 16 12 13 3 3 1 2 3 3 9 3 5 1 5 2 2 2 3 1 2 3 3 3 1 2 2 4 6 4 4 5 9 5 4 4
10 10 11 12 13 14 15 16 17 18 19 17 14 10 5 1 2 1 3 3 7 8 4 7 4 4 3 3 1 0 2 6 4 6 5 6 2 3 3 5 6 6 7 4 4 4 6
11 12 11 12 13 13 15 16 17 18 18 17 13 7 3 2 2 3 3 7 9 5 2 2 4 6 1 2 2 4 4 4 5 3 2 4 8 7 8 2 1 3 4 6 6 4 4
11 12 12 11 12 13 15 16 18 19 18 18 10 1 1 2 3 3 6 7 6 2 4 5 7 3 4 3 2 3 3 2 2 4 4 4 3 2 2 2 2 4 3 1 4 3 4
11 11 11 11 11 13 14 17 19 20 20 16 2 0 1 3 3 4 7 3 1 2 4 3 3 3 5 6 4 4 2 3 4 3 2 2 2 0 2 1 1 2 2 1 4 3 2
11 11 10 9 9 11 12 15 18 21 22 4 3 3 2 4 4 5 5 2 2 2 2 3 3 4 3 4 4 4 3 2 4 6 3 2 2 4 3 3 1 3 2 4 4 5 3
12 11 9 7 9 11 12 13 16 19 23 4 2 3 1 2 5 2 3 3 2 1 3 2 1 3 2 2 4 4 4 2 5 3 3 3 2 2 1 2 1 1 2 2 6 4 2
12 11 9 7 8 10 11 13 14 16 13 3 2 2 1 3 3 2 3 3 2 2 1 2 1 2 2 3 1 1 1 1 4 4 1 4 2 3 8 4 2 1 2 3 4 4 4
12 11 9 7 7 8 10 11 14 15 11 3 2 3 5 5 1 5 2 3 4 2 2 1 2 1 2 2 4 3 1 4 2 2 2 1 1 6 6 6 3 2 1 1 4 3 3
12 10 9 7 6 7 9 11 13 16 13 2 3 2 3 2 3 1 1 3 2 4 3 4 2 3 0 2 5 0 3 0 2 2 2 4 1 0 5 6 3 4 5 4 7 6 3
12 10 9 8 6 5 7 9 12 16 13 4 2 3 3 2 1 1 2 4 4 2 6 4 4 4 2 3 4 3 2 2 1 4 2 0 2 2 3 1 4 6 7 7 6 5 6
13 11 10 8 6 6 4 6 10 14 9 3 2 1 4 4 2 3 4 2 2 2 2 2 3 1 3 3 1 2 2 2 3 1 2 2 1 3 5 3 6 6 7 9 6 6 8
13 12 10 9 8 6 4 2 6 10 8 2 2 2 4 4 1 3 1 1 1 1 2 1 0 1 0 2 3 1 3 4 2 2 2 1 1 2 4 6 3 4 2 3 8 4 6
14 13 10 10 8 7 6 2 1 5 9 3 1 1 3 2 1 2 2 2 2 1 2 2 2 1 3 3 4 4 3 2 1 2 1 2 2 0 2 2 8 2 2 2 1 4 7
15 14 13 13 10 6 5 4 2 1 4 3 1 1 2 4 3 3 1 1 2 2 2 1 1 2 2 2 2 1 3 3 2 1 2 1 3 3 2 2 5 2 2 0 3 5 1
16 15 14 14 13 12 12 10 9 4 2 2 1 1 1 2 3 2 3 4 2 2 1 1 2 1 2 2 1 3 4 0 3 3 4 2 1 4 3 4 8 3 4 1 1 6 4
14 14 13 12 12 13 13 12 11 9 8 2 1 1 2 1 4 4 4 4 1 2 4 3 3 2 2 2 3 4 3 3 2 2 5 6 6 5 2 3 8 6 3 7 6 2 5
14 11 11 10 10 11 11 11 10 12 12 1 1 1 0 2 4 2 4 4 5 4 4 2 3 4 5 2 2 1 2 1 4 4 1 3 7 5 9 7 4 7 5 5 5 4 4
Wind_Direction
20 16 12 11 11 9 9 4 0 351 341 338 332 334 336 331 329 329 327 326 321 311 307 316 321 316 354 108 352 302 329 318 320 268 265 236 203 171 289 348 307 230 264 246 266 288 291
19 14 8 10 9 9 8 4 0 355 348 345 342 338 336 333 331 328 325 325 317 309 287 288 309 336 40 30 298 304 306 311 341 136 45 70 148 125 31 330 322 320 240 235 242 263 264
15 11 11 10 10 7 5 3 1 357 348 345 346 344 339 334 331 327 326 326 313 295 268 265 304 343 54 226 285 297 256 278 359 150 111 125 145 99 5 317 106 257 251 217 217 249 108
11 11 10 11 9 7 7 5 1 358 348 343 342 343 339 334 328 325 325 327 310 292 268 268 309 319 90 230 256 307 357 331 63 70 93 107 123 112 71 270 232 237 170 119 233 180 356
10 11 11 12 8 5 5 5 2 0 355 347 340 335 332 329 326 321 318 318 298 314 267 285 334 148 336 317 9 322 8 6 63 95 126 140 33 39 236 240 102 142 156 146 131 207 124
13 10 9 8 6 4 6 4 2 360 356 346 340 330 326 323 321 319 315 281 298 320 259 243 281 47 346 319 303 299 264 2 352 162 107 118 144 304 288 69 169 162 128 208 129 196 74
14 11 9 4 4 5 4 4 2 360 356 348 341 333 322 319 317 322 350 12 23 6 29 97 186 153 270 289 272 297 347 339 333 28 71 235 50 215 271 316 334 26 204 188 28 174 110
11 9 8 6 1 1 2 2 1 358 356 350 338 332 323 321 316 314 122 75 150 191 330 253 270 260 243 232 292 346 352 52 23 28 333 19 27 298 323 336 316 319 188 129 21 49 101
10 7 3 3 0 357 358 358 356 357 356 350 338 329 323 320 317 9 87 115 295 68 158 248 227 293 255 52 334 330 358 354 359 71 64 89 276 313 315 1 2 318 146 206 151 155 57
3 3 4 359 356 356 354 354 352 352 351 350 340 330 328 323 13 262 56 133 1 73 75 308 303 265 214 192 305 245 20 242 227 155 108 261 308 277 61 22 14 32 25 241 126 86 151
349 353 358 356 353 350 350 351 350 346 347 347 338 330 328 359 241 60 170 355 52 63 52 278 306 152 195 110 283 301 194 104 323 309 103 279 334 26 36 294 339 281 290 152 114 102 92
340 348 351 350 348 347 346 346 345 344 346 346 336 325 329 56 59 24 12 359 54 44 297 329 264 325 1 226 222 317 284 238 248 339 21 188 246 146 219 240 221 268 30 43 59 79 50
332 335 340 345 344 343 341 340 343 342 344 345 336 321 348 346 171 169 57 45 37 86 271 312 310 326 328 345 23 55 62 28 39 32 344 342 31 324 15 3 10 15 51 25 20 21 207
318 322 324 333 340 341 340 339 339 340 341 344 333 323 302 120 125 105 70 50 67 260 332 332 311 306 245 31 261 16 83 24 360 45 76 68 345 7 336 71 191 327 124 150 172 174 239
302 308 315 321 334 341 344 340 338 337 339 342 328 276 323 242 144 80 76 50 194 299 311 341 321 6 345 343 301 87 55 32 7 32 103 34 322 252 278 324 47 336 48 232 134 61 66
287 297 306 316 330 340 343 344 338 336 338 344 21 39 235 173 111 78 73 145 130 350 329 333 24 14 10 329 25 38 117 319 331 7 64 299 11 342 303 313 234 162 249 104 1 98 275
275 287 295 312 325 333 338 345 341 338 338 352 63 35 257 128 72 50 105 180 134 128 32 22 341 342 19 5 327 26 351 344 358 312 322 12 110 296 29 27 313 337 317 48 117 124 142
265 282 288 307 322 329 337 340 342 343 343 59 73 45 233 98 49 46 118 151 217 139 204 263 253 311 313 350 7 12 5 350 339 299 335 359 150 249 245 185 164 218 281 93 109 300 231
256 269 278 296 318 327 335 337 339 343 8 335 87 241 333 86 90 0 267 154 146 198 170 358 301 60 305 294 68 89 70 229 10 11 349 336 2 20 341 357 305 251 207 122 113 79 241
249 260 266 280 309 322 332 337 333 335 353 106 52 22 328 40 158 135 192 233 172 191 239 200 252 225 297 258 217 290 350 209 178 131 249 355 272 159 186 214 193 290 284 94 115 117 255
246 251 260 271 297 317 332 337 333 331 340 125 55 263 191 292 320 30 137 199 219 181 208 191 225 221 137 300 331 22 341 130 229 219 245 126 227 36 260 251 218 230 234 208 191 217 154
236 241 246 254 275 306 334 336 335 335 345 71 112 91 357 271 232 190 171 230 215 246 161 191 186 201 170 209 180 263 20 62 118 311 294 336 280 10 300 95 228 258 249 238 243 244 252
229 231 235 244 261 271 298 335 349 347 7 87 312 25 107 272 245 109 225 200 223 106 308 165 163 131 245 197 217 223 230 248 237 2 315 359 81 50 277 336 296 287 230 187 200 202 168
226 223 223 228 235 248 266 341 3 2 33 119 236 117 97 274 192 210 194 69 125 282 282 172 134 170 281 313 309 283 273 245 250 243 139 337 16 107 271 351 8 256 84 177 212 214 204
218 212 208 210 217 235 232 213 23 20 16 88 324 123 125 212 298 350 20 195 141 142 280 230 61 78 351 354 7 354 344 334 237 105 81 169 121 184 131 247 291 220 257 182 120 287 208
114 118 125 124 109 110 183 195 133 17 12 102 104 262 106 127 238 270 293 330 196 187 349 244 4 11 68 96 65 268 247 243 233 277 9 62 97 123 144 187 245 267 222 101 89 290 253
98 99 96 96 94 93 88 74 72 42 28 96 137 88 97 147 256 139 203 189 167 128 187 166 204 77 49 99 147 212 264 283 237 211 178 141 149 192 213 242 283 209 182 120 122 239 182
99 97 91 84 76 73 70 62 59 52 36 107 161 40 137 190 273 201 197 185 163 135 158 216 45 323 60 152 164 247 196 250 322 202 183 177 156 213 173 207 271 162 107 172 214 204 190
84 102 102 91 83 80 74 67 53 44 23 43 143 312 116 159 243 258 237 237 192 197 151 204 204 167 195 122 228 152 247 215 184 253 252 247 195 201 184 216 228 203 201 208 174 186 213